�������r�C�����j�^�v���󋵏��
Date,Time,5�C6���@���p�r�C��,����,����(m/s)
2021/09/30,00:00,3.8,��쐼,7.5
2021/09/30,00:10,3.9,��,7.6
2021/09/30,00:20,3.7,��,7.5
2021/09/30,00:30,3.9,��,7.9
2021/09/30,00:40,3.9,��,7.7
2021/09/30,00:50,3.8,��,7.3
2021/09/30,01:00,4.1,��,7.9
2021/09/30,01:10,4.0,��,6.7
2021/09/30,01:20,3.8,��,7.3
2021/09/30,01:30,3.9,��,6.3
2021/09/30,01:40,4.0,��쐼,4.6
2021/09/30,01:50,4.0,��,7.0
2021/09/30,02:00,4.0,��,7.0
2021/09/30,02:10,3.8,��,7.5
2021/09/30,02:20,3.9,��,6.8
2021/09/30,02:30,3.7,��,6.5
2021/09/30,02:40,4.0,��쐼,5.9
2021/09/30,02:50,3.8,��,5.6
2021/09/30,03:00,3.8,��,6.5
2021/09/30,03:10,3.9,��,7.3
2021/09/30,03:20,4.0,��,7.1
2021/09/30,03:30,4.1,��,7.3
2021/09/30,03:40,3.9,��,7.2
2021/09/30,03:50,3.9,��,6.1
2021/09/30,04:00,3.9,��,5.1
2021/09/30,04:10,3.8,��,5.2
2021/09/30,04:20,3.9,��,5.5
2021/09/30,04:30,3.9,��,5.4
2021/09/30,04:40,3.9,��,4.2
2021/09/30,04:50,3.9,��,2.3
2021/09/30,05:00,3.9,��쐼,0.8
2021/09/30,05:10,3.9,��,2.6
2021/09/30,05:20,3.9,��,5.7
2021/09/30,05:30,3.8,��,6.6
2021/09/30,05:40,3.9,��,7.7
2021/09/30,05:50,3.9,��,7.7
2021/09/30,06:00,4.0,��,7.0
2021/09/30,06:10,3.8,��,7.2
2021/09/30,06:20,3.7,��,6.2
2021/09/30,06:30,3.9,��,6.4
2021/09/30,06:40,3.7,��,5.9
2021/09/30,06:50,3.9,��,6.5
2021/09/30,07:00,3.8,��,5.7
2021/09/30,07:10,3.8,��,4.8
2021/09/30,07:20,3.9,��,4.3
2021/09/30,07:30,4.0,��,4.4
2021/09/30,07:40,3.9,��,4.4
2021/09/30,07:50,4.1,��,3.0
2021/09/30,08:00,3.8,��,4.2
2021/09/30,08:10,3.8,��,4.5
2021/09/30,08:20,3.8,��쓌,7.9
2021/09/30,08:30,3.8,��쓌,8.5
2021/09/30,08:40,3.8,��쓌,8.4
2021/09/30,08:50,3.9,��쓌,7.6
2021/09/30,09:00,3.9,��쓌,9.6
2021/09/30,09:10,3.8,��,7.7
2021/09/30,09:20,3.8,��,7.7
2021/09/30,09:30,4.0,��,9.4
2021/09/30,09:40,4.0,��,9.0
2021/09/30,09:50,4.1,��쓌,10.2
2021/09/30,10:00,3.9,��쓌,9.2
2021/09/30,10:10,3.9,��쓌,9.5
2021/09/30,10:20,4.0,��쓌,9.4
2021/09/30,10:30,4.1,��쓌,10.7
2021/09/30,10:40,4.0,��쓌,12.0
2021/09/30,10:50,3.9,��쓌,12.4
2021/09/30,11:00,3.9,��쓌,13.5
2021/09/30,11:10,3.7,��쓌,13.1
2021/09/30,11:20,3.9,��쓌,10.8
2021/09/30,11:30,4.0,��쓌,11.8
2021/09/30,11:40,4.0,��쓌,11.3
2021/09/30,11:50,3.9,��,12.1
2021/09/30,12:00,3.9,��쓌,12.2
2021/09/30,12:10,3.9,��,12.2
2021/09/30,12:20,3.8,��쓌,11.6
2021/09/30,12:30,3.8,��쓌,11.0
2021/09/30,12:40,3.8,��쓌,8.8
2021/09/30,12:50,3.9,��,10.3
2021/09/30,13:00,3.9,��쓌,11.7
2021/09/30,13:10,3.9,��,12.7
2021/09/30,13:20,4.0,��쓌,12.0
2021/09/30,13:30,3.9,��,11.3
2021/09/30,13:40,3.7,��쓌,13.5
2021/09/30,13:50,3.8,��,12.2
2021/09/30,14:00,3.8,��,12.0
2021/09/30,14:10,3.9,��,9.7
2021/09/30,14:20,3.7,��,9.3
2021/09/30,14:30,4.0,��,10.7
2021/09/30,14:40,3.8,��,10.9
2021/09/30,14:50,4.0,��,9.3
2021/09/30,15:00,3.8,��,10.0
2021/09/30,15:10,4.0,��,9.8
2021/09/30,15:20,3.8,��,9.6
2021/09/30,15:30,3.9,��,9.4
2021/09/30,15:40,3.9,��,10.7
2021/09/30,15:50,4.0,��,9.4
2021/09/30,16:00,3.8,��,10.6
2021/09/30,16:10,4.0,��,9.7
2021/09/30,16:20,3.9,��,9.1
2021/09/30,16:30,4.0,��,9.0
2021/09/30,16:40,4.0,��,6.7
2021/09/30,16:50,3.8,��,8.5
2021/09/30,17:00,3.9,��,9.2
2021/09/30,17:10,4.1,��,9.7
2021/09/30,17:20,3.8,��,9.7
2021/09/30,17:30,3.9,��,9.5
2021/09/30,17:40,3.8,��,8.6
2021/09/30,17:50,3.9,��,7.8
2021/09/30,18:00,4.0,��,7.2
2021/09/30,18:10,4.0,��,8.2
2021/09/30,18:20,3.9,��,6.8
2021/09/30,18:30,3.8,��,6.9
2021/09/30,18:40,3.8,��,7.3
2021/09/30,18:50,4.0,��,7.5
2021/09/30,19:00,3.9,��,7.0
2021/09/30,19:10,3.9,��,7.3
2021/09/30,19:20,3.8,��,5.5
2021/09/30,19:30,3.7,��,6.1
2021/09/30,19:40,3.9,��쐼,7.7
2021/09/30,19:50,4.1,��,7.5
2021/09/30,20:00,3.9,��,7.1
2021/09/30,20:10,3.9,��,5.8
2021/09/30,20:20,3.9,��,5.8
2021/09/30,20:30,3.7,��,6.4
2021/09/30,20:40,4.0,��,6.2
2021/09/30,20:50,3.9,��,6.7
2021/09/30,21:00,3.8,��,6.7
2021/09/30,21:10,4.0,��,7.9
2021/09/30,21:20,3.8,��,7.9
2021/09/30,21:30,3.7,��,7.6
2021/09/30,21:40,3.8,��,7.1
2021/09/30,21:50,3.8,��,6.5
2021/09/30,22:00,3.7,��,6.7
2021/09/30,22:10,4.1,��,7.4
2021/09/30,22:20,4.0,��,7.2
2021/09/30,22:30,3.9,��,8.4
2021/09/30,22:40,3.8,��,8.7
2021/09/30,22:50,3.9,��,8.0
2021/09/30,23:00,3.9,��,8.4
2021/09/30,23:10,3.9,��,8.7
2021/09/30,23:20,4.0,��,8.0
2021/09/30,23:30,3.9,��,7.3
2021/09/30,23:40,3.9,��,6.8
2021/09/30,23:50,3.8,��,8.1
